NOAA 16 DEB, 42364

Orbit data source: Space-Track

NOAA 16 DEB, 42364 is space debris in SSO originally from a launch on Thu, 21 Sep 2000 UTC launched from the Air Force Western Test Range (AFWTR). Debris objects in space refer to the collection of defunct objects orbiting the Earth. Examples of debris include non-operational satellites, rocket bodies, and fragments generated from explosions, collisions, or faulty payload assembly.

Loading next visibility...
Identifier
42364, 2000-055RG
Orbit
SSO
Country
Flag of USUS
Related business
Manufacturer
Unknown
Mission
Spacecraft
Bus & Motor
Unknown
Mass
Unknown
Launch date (UTC)
2000-09-21 (26 years ago)
Launch vehicle
Unknown
Launch site
Air Force Western Test Range (AFWTR)
Object type
Payload
Rocket body
Debris
Shape & HBR
Unknown shape, 0.1 m
Radar Cross Section
Small (<0.1 m²)

Expand to show TLE details & history
Last TLE update: 3 days ago

TLE from 3 days ago
0 NOAA 16 DEB
1 42364U 00055RG  26124.25215240  .00009587  00000-0  26054-2 0  9993
2 42364  98.7983 239.6272 0039171  81.3872 279.1754 14.47279951522605
Epoch: 2026-05-04T06:03Z
TLE epoch observation values (Epoch: 2026-05-04T06:03:05.967Z)
Latitude
-0.00005°
Longitude
-73.29167°
Altitude
733.158 km
Speed
7.491 km/s
True Right ascension
15h 58m 30s
True Declination
0° 00' 00"
Sunlit
Object was in full shadow at epoch
Visualization orbit readout
Latitude
Unknown
Longitude
Unknown
Altitude
Unknown
Speed
Unknown
Apparent Right ascension
Unknown
Apparent Declination
Unknown
Sunlit
N/A
Visualization observer readout
Local Sidereal Time
14:54:06
Azimuth
Unknown
Elevation
Unknown
Doppler factor
Unknown
Orbital elements
Apogee altitude
759.523 km
Perigee altitude
703.823 km
Semi-major axis
7,109.81 km
Eccentricity
0.00392
Inclination
98.7983°
RAAN
239.6272°
Arg. of periapsis
81.3872°
True anomaly
278.73193°
Mean anomaly
279.1754°
Eccentric anomaly
278.9537°
Mean motion
3.6204 °/min
Orbital period
99.44 mins
BSTAR
0.0026054
Loading maneuver chart data...
Computing Atmospheric mass density...
Loading historical data...
Loading historical data...
Loading historical data...
Loading historical data...
Loading historical data...
Loading historical data...
Loading historical data...

Documentation

Showing up to 5 results
|